Flag for U.S.A. Weather past 2 weeks in Post Falls, Idaho, U.S.A.

Now
55 °F

Mostly cloudy.


Feels Like: 52 °F
Forecast: 47 / 62 °F
Wind: 15 mph from Southwest

Location: Coeur d'Alene Weather Reporting System

Current Time: Sep 3, 2014 at 12:00:31 AM

Latest Report: Sep 2, 2014 at 11:35 PM


Visibility: 10 mi

Pressure: 29.71 "Hg

Humidity: 77%

Dew point: 48 °F

Location of Post FallsLocation

Historic Weather in Post Falls — Graph

°F

Post Falls temperature yesterday

Maximum temperature yesterday: 75 °F (at 3:15 PM)
Minimum temperature yesterday: 54 °F (at 3:55 AM)
Average temperature yesterday: 64 °F

Past Weeks' High & Low Weather Summary

 TemperatureHumidityPressure
High90 °F (Aug 27, 4:15 PM)100% (Sep 1, 12:35 PM)30.14 "Hg (Sep 1, 12:35 PM)
Low46 °F (Aug 26, 6:15 AM)11% (Sep 1, 10:55 AM)29.64 "Hg (Sep 2, 9:35 PM)
Average65 °F54%29.94 "Hg
* Reported Aug 18 10:35 PM — Sep 2 10:55 PM, Post Falls, Weather by CustomWeather, © 2014

Note: Actual official high and low records may vary slightly from our data, if they occured in-between our weather recording intervals... More about our weather records

Advertising

Post Falls weather history for previous 24 hours

 ConditionsComfort  
Time TempWeatherWind HumidityBarometerVisibility
10:55 PM
Sep 2
57 °FThunderstorms. Partly cloudy.20 mph67%29.67 "Hg6 mi
10:35 PM64 °FThundershowers. Overcast.14 mph49%29.64 "Hg10 mi
10:15 PM64 °FPassing clouds.7 mph46%29.64 "Hg10 mi
9:55 PM64 °FClear.7 mph46%29.64 "Hg10 mi
9:35 PM64 °FClear.6 mph46%29.64 "Hg10 mi
9:15 PM64 °FPassing clouds.9 mph46%29.65 "Hg10 mi
8:55 PM64 °FPassing clouds.8 mph46%29.66 "Hg10 mi
8:35 PM66 °FPassing clouds.7 mph40%29.66 "Hg10 mi
8:15 PM66 °FPartly sunny.8 mph43%29.66 "Hg10 mi
7:55 PM64 °FPartly sunny.7 mph43%29.66 "Hg10 mi
7:35 PM66 °FPassing clouds.8 mph40%29.66 "Hg10 mi
7:15 PM70 °FOvercast.7 mph38%29.66 "Hg10 mi
6:55 PM70 °FPartly sunny.8 mph35%29.66 "Hg10 mi
6:35 PM70 °FPartly sunny.5 mph35%29.67 "Hg10 mi
6:15 PM72 °FPartly sunny.9 mph33%29.67 "Hg10 mi
5:55 PM73 °FPartly sunny.13 mph31%29.68 "Hg10 mi
5:35 PM73 °FScattered clouds.16 mph31%29.68 "Hg10 mi
5:15 PM75 °FPartly sunny.16 mph31%29.69 "Hg10 mi
4:55 PM73 °FScattered clouds.13 mph33%29.70 "Hg10 mi
4:35 PM73 °FSunny.16 mph33%29.71 "Hg10 mi
4:15 PM73 °FScattered clouds.14 mph31%29.71 "Hg10 mi
3:55 PM73 °FPartly sunny.12 mph33%29.72 "Hg10 mi
3:35 PM73 °FScattered clouds.14 mph31%29.73 "Hg10 mi
3:15 PM75 °FPartly sunny.13 mph31%29.73 "Hg10 mi
2:55 PM73 °FPartly sunny.14 mph31%29.74 "Hg10 mi
2:35 PM73 °FPartly sunny.14 mph31%29.75 "Hg10 mi
2:15 PM73 °FPartly sunny.10 mph33%29.76 "Hg10 mi
1:55 PM72 °FScattered clouds.9 mph36%29.77 "Hg10 mi
1:35 PM73 °FPartly sunny.14 mph33%29.78 "Hg10 mi
1:15 PM72 °FMostly cloudy.8 mph36%29.79 "Hg10 mi
12:55 PM70 °FOvercast.9 mph38%29.79 "Hg10 mi
12:35 PM70 °FOvercast.10 mph38%29.80 "Hg10 mi
11:55 AM70 °FOvercast.7 mph38%29.81 "Hg10 mi
11:35 AM66 °FPartly sunny.3 mph43%29.81 "Hg10 mi
10:55 AM70 °FSunny.9 mph40%29.83 "Hg10 mi
10:35 AM66 °FPartly sunny.12 mph46%29.84 "Hg10 mi
10:15 AM66 °FScattered clouds.12 mph46%29.84 "Hg10 mi
9:55 AM66 °FSunny.8 mph46%29.84 "Hg10 mi
9:35 AM64 °FSunny.13 mph49%29.85 "Hg10 mi
9:15 AM63 °FSunny.12 mph52%29.85 "Hg10 mi
8:55 AM61 °FSunny.13 mph55%29.85 "Hg10 mi
8:35 AM59 °FSunny.9 mph59%29.86 "Hg10 mi
8:15 AM57 °FSunny.12 mph63%29.86 "Hg10 mi
7:55 AM55 °FSunny.12 mph67%29.86 "Hg10 mi
7:35 AM55 °FSunny.8 mph67%29.87 "Hg10 mi
7:15 AM55 °FSunny.No wind67%29.87 "Hg10 mi
6:55 AM54 °FPassing clouds.6 mph67%29.87 "Hg10 mi
6:35 AM54 °FPassing clouds.7 mph72%29.87 "Hg10 mi
6:15 AM54 °FPassing clouds.8 mph72%29.87 "Hg10 mi
5:55 AM54 °FClear.8 mph72%29.87 "Hg10 mi
5:35 AM54 °FClear.9 mph77%29.88 "Hg10 mi
4:55 AM54 °FPassing clouds.9 mph72%29.89 "Hg10 mi
4:35 AM54 °FClear.7 mph67%29.90 "Hg10 mi
4:15 AM54 °FClear.3 mph72%29.90 "Hg10 mi
3:55 AM54 °FClear.3 mph72%29.90 "Hg10 mi
3:35 AM55 °FClear.8 mph67%29.90 "Hg10 mi
3:15 AM55 °FClear.9 mph67%29.90 "Hg10 mi
2:55 AM55 °FClear.10 mph67%29.90 "Hg10 mi
2:35 AM55 °FClear.9 mph67%29.91 "Hg10 mi
2:15 AM55 °FClear.10 mph67%29.91 "Hg10 mi
1:55 AM55 °FClear.10 mph67%29.91 "Hg10 mi
1:35 AM55 °FClear.10 mph63%29.91 "Hg10 mi
1:15 AM55 °FClear.8 mph63%29.92 "Hg10 mi
12:55 AM55 °FClear.8 mph63%29.92 "Hg10 mi
12:35 AM55 °FClear.8 mph63%29.93 "Hg10 mi
12:15 AM55 °FClear.6 mph63%29.93 "Hg10 mi
Weather by CustomWeather, © 2014

See weather overviewHow to use our weather pages